OneWeb SL0436

operational
NORAD ID: 51633 Int'l Des: 2022-012 Owner: ONEWEBN Country: UK Constellation: oneweb
LEOCIRCULARPOLARONEWEB_TYPE

OneWeb SL0436について

説明を読み込み中...

リアルタイム位置

3D地球を読み込み中...

次回通過

高度履歴

Altitude vs Time

uPlot chart will show altitude changes over time

軌道要素

1 51633U 22012M 26034.48861510 -.00000048 00000-0 -15697-3 0 9998
2 51633 87.9103 32.3992 0001634 92.1377 267.9941 13.17648051196076
Epoch: Feb 3, 2026 • Age: 12 hours

現在のステータス

高度 1217.4 km
速度 7.24 km/s
衛星直下点 -58.39°S, 108.1°W
打ち上げ日 Feb 10, 2022
運用期間 3.9 years
タイプ internet

技術仕様

分類 Payload
質量 148.00 kg
乾燥質量 140.00 kg
総質量 148.00 kg
長さ 1.30 m
直径 1.00 m
スパン 5.00 m
形状 Trapezoid+2 pan
製造者 ONEWUS
バスタイプ ARROW
フェーズステータス In Orbit
所有者/国 ONEWEBN/UK

大規模コンステレーション

Loading constellations...